Location: Augustenthal
(51.7167°N, 10.2833°E)
Time: 23:10:53
(UTC+00:00)

Cosmos 2221 Rocket - Pass Details

Date: 18 May 2021
Orbit: 619 x 649 km, 82.5° (Epoch: 24 June)

Event Time Altitude Azimuth Distance (km) Brightness Sun altitude
Exits shadow 23:23:40 36° 209° (SSW) 1,031 4.2 -18.5°
Maximum altitude 23:25:27 70° 282° (WNW) 695 3.8 -18.5°
Drops below altitude 10° 23:30:01 10° 7° (N) 2,056 7.5 -18.4°
Sets 23:32:17 0° 10° (N) 2,967 8.7 -18.4°
